カタログに戻る

CZ-6A DEB

運用中PO
NORAD 60969·DEBRIS·🇨🇳 China

打ち上げ Aug 6, 2024 から Taiyuan Satellite Launch Center

Loading…

次のパス (今後24時間)

TLE

最新Source: Space-Track

元期: Sep 14, 2026, 11:55 UTC

1 60969U 24140LU  26257.49660618  .00000194  00000-0  86695-4 0  9995
2 60969  89.0003 265.2930 0049177 276.4413  83.1178 14.18244526107726

AllMySatでCZ-6A DEBをリアルタイム追跡

Download on the App Store